This demonstration page uses our WeatherBlox Daily Observations layout. Learn more.

Left ArrowRight Arrow

39.01783, -85.05884

Hourly Observations for November 23, 2021

Temp ( °F °C ) Dew Point ( °F °C ) Humidity (%) Winds ( mph kmh ) Pressure ( in mb ) Visibility ( mi km ) Precip ( " mm )
12:52 am 00:52 Clear 24 -4.4 16 -8.9 71 71 W 7 11 30.22 1024 10 16 N/A
1:52 am 01:52 Clear 25 -3.9 16 -8.9 69 69 W 9 15 30.23 1024 10 16 N/A
2:52 am 02:52 Clear 24 -4.4 16 -8.9 71 71 W 7 11 30.23 1024 10 16 N/A
3:52 am 03:52 Clear 21 -6.1 17 -8.3 85 85 SW 3 6 30.24 1024 10 16 N/A
4:52 am 04:52 Clear 21 -6.1 17 -8.3 85 85 S 3 6 30.25 1024 10 16 N/A
5:52 am 05:52 Clear 22 -5.6 17 -8.3 82 82 N N/A 30.27 1025 10 16 N/A
6:52 am 06:52 Clear 21 -6.1 16 -8.9 81 81 SW 3 6 30.27 1025 10 16 N/A
7:52 am 07:52 Sunny 20 -6.7 16 -8.9 85 85 SW 3 6 30.29 1026 10 16 N/A
8:52 am 08:52 Sunny 26 -3.3 19 -7.2 75 75 W 6 9 30.30 1026 10 16 N/A
9:52 am 09:52 Mostly Sunny 30 -1.1 18 -7.8 61 61 W 6 9 30.31 1026 10 16 N/A
10:52 am 10:52 Partly Cloudy 34 1.1 17 -8.3 50 50 VRB 3 6 30.32 1027 10 16 N/A
11:52 am 11:52 Mostly Cloudy 36 2.2 12 -11.1 37 37 VRB 3 6 30.31 1027 10 16 N/A
12:52 pm 12:52 Partly Cloudy 39 3.9 13 -10.6 34 34 W 7 11 30.28 1026 10 16 N/A
1:52 pm 13:52 Mostly Sunny 41 5 14 -10 33 33 W 7 11 30.28 1025 10 16 N/A
2:52 pm 14:52 Mostly Sunny 42 5.6 15 -9.4 33 33 VRB 7 11 30.28 1025 10 16 N/A
3:52 pm 15:52 Mostly Sunny 41 5 16 -8.9 36 36 SW 6 9 30.28 1025 10 16 N/A
4:52 pm 16:52 Mostly Sunny 38 3.3 17 -8.3 43 43 S 8 13 30.27 1025 10 16 N/A
5:52 pm 17:52 Clear 37 2.8 17 -8.3 44 44 S 3 6 30.27 1025 10 16 N/A
6:52 pm 18:52 Clear 34 1.1 18 -7.8 52 52 SSW 6 9 30.27 1025 10 16 N/A
7:52 pm 19:52 Clear 32 undefined 18 -7.8 56 56 S 5 7 30.27 1025 10 16 N/A
8:52 pm 20:52 Mostly Clear 32 undefined 18 -7.8 56 56 S 7 11 30.25 1025 10 16 N/A
9:52 pm 21:52 Mostly Clear 31 -0.6 18 -7.8 59 59 SSW 5 7 30.26 1025 10 16 N/A
10:52 pm 22:52 Mostly Clear 30 -1.1 19 -7.2 64 64 S 6 9 30.24 1024 10 16 N/A
11:52 pm 23:52 Clear 30 -1.1 19 -7.2 64 64 S 9 15 30.25 1024 10 16 N/A

Powered by AerisWeather